Flag for U.S.A. Weather past 2 weeks in Annapolis, Maryland, U.S.A.

Now
38 °F

Sunny.


Feels Like: 35 °F
Forecast: 33 / 45 °F
Wind: 3 mph from North

Location: Annapolis - United States Naval Academy

Current Time: Jan 25, 2015 at 9:52:43 AM

Latest Report: Jan 25, 2015 at 8:54 AM


Visibility: 10 mi

Pressure: 29.83 "Hg

Humidity: 65%

Dew point: 27 °F

Location of AnnapolisLocation

Historic Weather in Annapolis — Graph

°F

Annapolis temperature yesterday

Maximum temperature yesterday: 41 °F (at 3:54 PM)
Minimum temperature yesterday: 34 °F (at 12:54 AM)
Average temperature yesterday: 37 °F

Past Weeks' High & Low Weather Summary

 TemperatureHumidityPressure
High44 °F (Jan 19, 11:54 AM)100% (Jan 18, 10:54 AM)30.69 "Hg (Jan 18, 10:54 AM)
Low18 °F (Jan 10, 8:54 AM)31% (Jan 10, 2:54 PM)29.43 "Hg (Jan 24, 1:54 PM)
Average33 °F72%30.17 "Hg
* Reported Jan 10 8:54 AM — Jan 25 8:54 AM, Annapolis, Weather by CustomWeather, © 2014

Note: Actual official high and low records may vary slightly from our data, if they occured in-between our weather recording intervals... More about our weather records

Advertising

Annapolis weather history for previous 24 hours

 ConditionsComfort  
Time TempWeatherWind HumidityBarometerVisibility
8:54 AM
Jan 25
38 °FSunny.3 mph65%29.83 "Hg10 mi
7:54 AM38 °FOvercast.3 mph63%29.83 "Hg10 mi
6:54 AM38 °FOvercast.5 mph65%29.83 "Hg10 mi
5:54 AM37 °FOvercast.3 mph67%29.79 "Hg10 mi
4:54 AM36 °FOvercast.No wind70%29.76 "Hg10 mi
3:54 AM36 °FClear.No wind67%29.74 "Hg10 mi
2:54 AM37 °FClear.7 mph65%29.72 "Hg10 mi
1:54 AM38 °FOvercast.6 mph63%29.71 "Hg10 mi
12:54 AM37 °FOvercast.7 mph65%29.68 "Hg10 mi
11:54 PM
Jan 24
36 °FPassing clouds.6 mph67%29.66 "Hg10 mi
10:54 PM37 °FClear.10 mph65%29.64 "Hg10 mi
9:54 PM37 °FClear.13 mph62%29.62 "Hg10 mi
8:54 PM37 °FClear.12 mph60%29.59 "Hg10 mi
7:54 PM39 °FClear.12 mph57%29.58 "Hg10 mi
6:54 PM39 °FClear.8 mph62%29.55 "Hg10 mi
5:54 PM39 °FClear.8 mph67%29.52 "Hg10 mi
4:54 PM41 °FScattered clouds.9 mph65%29.49 "Hg10 mi
3:54 PM41 °FPartly sunny.7 mph76%29.48 "Hg10 mi
2:54 PM39 °FLight rain. Mostly cloudy.7 mph82%29.45 "Hg8 mi
1:54 PM38 °FOvercast.9 mph86%29.43 "Hg8 mi
12:54 PM38 °FOvercast.10 mph90%29.44 "Hg9 mi
11:54 AM37 °FFog.9 mph93%29.45 "Hg3 mi
10:54 AM37 °FFog.5 mph93%29.54 "Hg4 mi
9:54 AM36 °FFog.8 mph92%29.54 "Hg1 mi
Weather by CustomWeather, © 2014

See weather overviewHow to use our weather pages